Weather in Novoye Akshino

Russia / Republic of Mordovia     54°18′07″N   44°46′51″E
temp.,
°C
wind,
m/s
gust,
m/s
humid.,
%
clouds,
%
prec.,
mm/h
press.,
hPa
HPBL,
m
27 july, tue
tue2700:00+15wsw33646 0.0 102123
03:00+14wsw336737 0.0 102123
06:00+17wsw3470100 0.0 102088
09:00+22wnw34567 0.0 1020513
12:00+25wnw46423 0.0 10191886
15:00+23nnw355445 0.0 1018268
18:00+23nnw34559 0.0 1017116
21:00+17ene116720 0.0 101811
28 july, wed
wed2800:00+16wsw22695 0.0 101811
03:00+15nw22735 0.0 101810
06:00+16nnw237512 0.1 101894
09:00+20n22616 0.1 1017340
12:00+25wnw34450 0.0 10161659
15:00+27wnw343784 0.0 10152565
18:00+24wsw2248100 0.0 101458
21:00+20s335474 0.0 101323
29 july, thu
thu2900:00+18wsw3363100 0.0 101260
03:00+18e1183100 0.3 101119
06:00+17sse51084100 0.3 1010262
09:00+20s71567100 0.3 1007790
12:00+25wsw81257100 0.3 10051856
15:00+24w8126433 0.7 10051495
18:00+23w71065100 0.1 10051138
21:00+19nw3686100 0.1 1006126
30 july, fri
fri3000:00+17wnw3393100 0.0 100857
03:00+16w339528 0.0 100851
06:00+18wsw35870 0.0 1009146
09:00+24w356192 0.0 1009628
12:00+28wsw564697 0.0 10082245
15:00+25sw235983 0.0 100892
18:00+27w125384 0.0 100757
21:00+23ssw2260100 0.0 100816
31 july, sat
sat3100:00+21ssw466310 0.0 1008108
03:00+19sw36872 0.4 1008112
06:00+19ssw37837 0.1 1008174
09:00+25sw456399 0.3 1008673
12:00+27sw445870 3.7 10081213
15:00+24w017077 4.9 100746
18:00+25wsw356293 0.1 1007123
21:00+21sw346262 0.1 100845